Regional Weather Roundup
Issued by NWS

Home | Current Version | Previous Version | Graphics & Text | Print | Product List | Glossary On
Versions: 1 2 3 4 5 6 7 8 9 10 11 12 13 14 15 16 17 18 19 20 21 22 23 24 25 26 27 28 29 30 31 32 33 34 35 36 37 38 39 40 41 42 43 44 45 46 47 48 49 50
000
ASUS43 KMKX 222200
RWRWI

WISCONSIN REGIONAL WEATHER ROUNDUP
NATIONAL WEATHER SERVICE MILWAUKEE/SULLIVAN WI
500 PM CDT MON SEP 22 2014

NOTE: "FAIR" INDICATES FEW OR NO CLOUDS BELOW 12,000 FEET WITH NO
SIGNIFICANT WEATHER AND/OR OBSTRUCTIONS TO VISIBILITY.

WIZ001-002-006>008-014>016-023>028-222300-
NORTHWEST WISCONSIN

CITY           SKY/WX    TMP DP  RH WIND       PRES   REMARKS
SUPERIOR ARPT  SUNNY     73  52  48 W10       30.10F
ASHLAND        SUNNY     70  50  49 W9        30.12S
HAYWARD        SUNNY     68  50  52 W8        30.15F
SIREN          SUNNY     70  49  47 W13       30.16S
RICE LAKE      SUNNY     68  49  50 SW9       30.19S
LADYSMITH      SUNNY     68  51  54 SW10      30.18F
EAU CLAIRE     SUNNY     69  49  48 W8        30.18F
MENOMONIE      CLEAR     71  49  46 SW7       30.18F
NEW RICHMOND   SUNNY     70  49  46 W6        30.18F
OSCEOLA        SUNNY     71  52  51 W8        30.20F
$$

WIZ003>005-009-010-017-018-222300-
NORTH CENTRAL WISCONSIN

CITY           SKY/WX    TMP DP  RH WIND       PRES   REMARKS
WOODRUFF       SUNNY     65  47  52 W10G16    30.15S
RHINELANDER    SUNNY     65  48  54 W8        30.16F
EAGLE RIVER    SUNNY     65  44  47 W8        30.14F
LAND O LAKES   SUNNY     66  47  49 W7        30.14F
PHILLIPS       SUNNY     66  49  53 W7        30.15F
TOMAHAWK       SUNNY     65  47  51 SW5       30.17F
MEDFORD        SUNNY     64  49  57 W12       30.18F
MERRILL        SUNNY     66  50  55 W8        30.17S
$$

WIZ029-030-035-036-043>047-222300-
CENTRAL WISCONSIN

CITY           SKY/WX    TMP DP  RH WIND       PRES   REMARKS
WAUSAU         SUNNY     66  48  52 W10       30.16F
MOSINEE        SUNNY     64  52  63 W10       30.19S
MARSHFIELD     SUNNY     67  51  56 W9        30.18S
STEVENS POINT  MOSUNNY   65  48  53 W9G20     30.18S
WAUPACA        MOSUNNY   70  48  46 W9        30.18S
WAUTOMA        NOT AVBL
WISC RAPIDS    SUNNY     68  49  50 W9        30.19F
CAMP DOUGLAS   NOT AVBL
$$

WIZ011>013-019>022-031-037>040-048>050-222300-
NORTHEAST WISCONSIN

CITY           SKY/WX    TMP DP  RH WIND       PRES   REMARKS
ANTIGO         SUNNY     64  49  57 W9        30.17S
STURGEON BAY   SUNNY     66  48  52 SW14      30.14F
GREEN BAY      SUNNY     67  48  50 W7        30.16F
MANITOWOC      NOT AVBL
APPLETON       MOSUNNY   66  46  48 W12       30.18F
CLINTONVILLE   SUNNY     68  46  45 W8        30.16F
OSHKOSH        SUNNY     68  49  50 W9        30.18S
$$

WIZ032>034-041-042-053>061-222300-
SOUTHWEST WISCONSIN

CITY           SKY/WX    TMP DP  RH WIND       PRES   REMARKS
LA CROSSE      SUNNY     72  51  47 NW5       30.19F
SPARTA         SUNNY     69  48  46 W7        30.20F
VIROQUA        FAIR      69  49  48 SW8       30.21F
BOSCOBEL       SUNNY     72  49  44 W9        30.21F
PRAIRIE DU CHI SUNNY     71  44  37 SW6       30.21S
PLATTEVILLE    FAIR      69  47  45 SW8       30.24S
$$

WIZ056-057-062-063-064-067-068-222300-
SOUTH CENTRAL WISCONSIN

CITY           SKY/WX    TMP DP  RH WIND       PRES   REMARKS
BARABOO/DELLS  SUNNY     68  46  45 NW7       30.20F
LONE ROCK      NOT AVBL
WATERTOWN      SUNNY     67  47  47 W9        30.21S
MADISON        MOSUNNY   69  47  45 W7        30.21F
MIDDLETON      FAIR      69  46  43 W10       30.22S
MONROE         SUNNY     68  45  42 W8        30.22F
JANESVILLE     SUNNY     70  43  37 NW7       30.21F
$$

WIZ051-052-058>065-066-070>072-222300-
SOUTHEAST WISCONSIN

CITY           SKY/WX    TMP DP  RH WIND       PRES   REMARKS
MILWAUKEE      MOSUNNY   68  43  40 W8        30.20F
WAUKESHA       NOT AVBL
MILWAUKEE/TIMM SUNNY     66  43  42 W9        30.21S
RACINE         SUNNY     63  47  55 S6        30.22F
BURLINGTON     SUNNY     66  43  42 W3        30.21F
KENOSHA        MOSUNNY   67  46  47 W9        30.22F
FOND DU LAC    MOSUNNY   65  47  52 W7        30.19F
SHEBOYGAN      SUNNY     67  47  48 W9        30.19S
WEST BEND      MOSUNNY   64  43  45 W7        30.20S
JUNEAU         MOSUNNY   66  48  51 W9        30.21F
$$

LSZ147-162-222300-
LAKE SUPERIOR

STATION/POSITION TIME  TEMP    WIND        PRES    WAVE
                       AIR SEA DIR/SP/G            HT/PER
                 (UTC) (F)     (DEG/KT/KT) (MB)    (FT/S)
W MID LAKE BUOY  2050   53 47  220/ 12/ 14 1018.3F   2/ 4
DEVILS ISLAND    2100   62     230/ 15/ 19 1018.7F
PORT WING        2140   70     240/  7/ 14 1019.3F
SAXON HARBOR     2100   70     240/  6/ 11 1020.0F
$$

LMZ867-665-643>646-222300-
LAKE MICHIGAN

STATION/POSITION TIME  TEMP    WIND        PRES    WAVE
                       AIR SEA DIR/SP/G            HT/PER
                 (UTC) (F)     (DEG/KT/KT) (MB)    (FT/S)
N MID LAKE BUOY  2050   58 57  220/ 14/ 16 1020.4F   2/ 4
NORTHPORT PIER   2100   67     200/  4/ 12 1020.0F
KEWAUNEE LAKESHO 2100   66     240/  7/ 11 1020.6F
SHEBOYGAN LAKESH 2100   60 53  150/  7/  9 1022.9F
PORT WASHINGTON  2140   62     180/  9/ 12 1022.7F
ATWATER BUOY     2100   59     150/ 12/ 16 1023.8F
MILWAUKEE LAKESH 2100   58     140/ 11/ 13   N/A
S MID LAKE BUOY  2050   59 62  210/  8/ 10 1024.1F   2/ 6
KENOSHA   LAKESH 2100   59     150/ 12/ 13 1023.0F
$$

TC  - TEMPERATURE IN CELSIUS
VSB - VISIBILITY IN STATUTE MILES
WCI - WIND CHILL INDEX
HX  - HEAT INDEX



USA.gov is the U.S. government's official web portal to all federal, state and local government web resources and services.